Weather in Ivanovo

Russia / Ivanovo Oblast     57˚00′01″N   40˚58′26″E
temp.,
°C
wind,
m/s
gust,
m/s
humid.,
%
clouds,
%
prec.,
mm/h
press.,
hPa
HPBL,
m
2 december, wed
wed200:00−4˚s3795100 0.1 1036353
03:00−4˚s3694100 0.4 1037326
06:00−6˚ssw239470 0.1 103729
09:00−6˚s229269 0.1 103726
12:00−4˚s238820 0.0 1037204
15:00−5˚sse129040 0.0 103721
18:00−6˚sse22914 0.0 103721
21:00−6˚sse229150 0.0 103826
3 december, thu
thu300:00−7˚sse228997 0.0 103727
03:00−8˚sse238799 0.0 103844
06:00−8˚sse2388100 0.0 103741
09:00−8˚sse2387100 0.0 103763
12:00−6˚se2584100 0.0 1037220
15:00−7˚se3585100 0.0 1036124
18:00−8˚se3785100 0.0 1036146
21:00−9˚se3683100 0.0 1035145
4 december, fri
fri400:00−8˚se3784100 0.0 1035180
03:00−9˚se378498 0.0 1035173
06:00−8˚se378599 0.0 1035205
09:00−9˚sse378490 0.0 1036215
12:00−7˚sse378084 0.0 1036347
15:00−6˚sse378290 0.0 1037311
18:00−8˚sse378583 0.0 1037197
21:00−9˚se368542 0.0 1037134
5 december, sat
sat500:00−9˚sse35840 0.0 1038132
03:00−9˚se35869 0.0 1038107
06:00−9˚se35880 0.0 1038116
09:00−10˚se35870 0.0 1039134
12:00−7˚se36820 0.0 1039258
15:00−8˚se35840 0.0 1040141
18:00−9˚se37850 0.0 1040149
21:00−10˚se36840 0.0 1040138
6 december, sun
sun600:00−10˚se36840 0.0 1041107
03:00−11˚se36840 0.0 104197
06:00−11˚se36840 0.0 104196
09:00−11˚se35840 0.0 104293
12:00−8˚sse36800 0.0 1042217
15:00−9˚se35830 0.0 1042104
18:00−11˚se33850 0.0 104277
21:00−11˚se33830 0.0 104362